This is the latest recevied weather packets stored in our database for station/object OE3XOC-11. If no packets are shown the sender has not sent any weather packets the latest 10 day(s).
| Time | Temp. | Humidity | Pressure | Rain* | Wind** | Luminosity | Snow |
|---|---|---|---|---|---|---|---|
| 1777837789 | 21.11° C | 33% | 959.1 hPa | - | - | - | - |
| 1777837489 | 21.11° C | 33% | 959.1 hPa | - | - | - | - |
| 1777837189 | 21.11° C | 33% | 959.1 hPa | - | - | - | - |
| 1777836889 | 21.11° C | 33% | 959.1 hPa | - | - | - | - |
| 1777836589 | 21.67° C | 32% | 959.2 hPa | - | - | - | - |
| 1777836289 | 21.11° C | 33% | 959.1 hPa | - | - | - | - |
| 1777835989 | 21.11° C | 33% | 959.2 hPa | - | - | - | - |
| 1777835689 | 21.67° C | 32% | 959.3 hPa | - | - | - | - |
| 1777835389 | 22.22° C | 31% | 959.2 hPa | - | - | - | - |
| 1777835089 | 21.11° C | 32% | 959.1 hPa | - | - | - | - |
| 1777834789 | 21.11° C | 32% | 959.2 hPa | - | - | - | - |
| 1777834489 | 21.67° C | 32% | 959.2 hPa | - | - | - | - |
| 1777834189 | 22.22° C | 31% | 959.2 hPa | - | - | - | - |
| 1777833889 | 21.67° C | 31% | 959.1 hPa | - | - | - | - |
| 1777833589 | 22.22° C | 31% | 959.2 hPa | - | - | - | - |
| 1777833141 | 22.22° C | 31% | 959 hPa | - | - | - | - |
| 1777832841 | 21.67° C | 31% | 959.1 hPa | - | - | - | - |
| 1777832541 | 22.22° C | 31% | 959.1 hPa | - | - | - | - |
| 1777832241 | 22.78° C | 30% | 959 hPa | - | - | - | - |
| 1777831941 | 22.22° C | 30% | 959 hPa | - | - | - | - |
| 1777831641 | 22.78° C | 30% | 958.9 hPa | - | - | - | - |
| 1777831341 | 22.78° C | 30% | 958.9 hPa | - | - | - | - |
| 1777831041 | 22.78° C | 29% | 958.9 hPa | - | - | - | - |
| 1777830741 | 22.78° C | 29% | 959 hPa | - | - | - | - |
| 1777830441 | 22.78° C | 29% | 958.9 hPa | - | - | - | - |
* Rain since midnight (hover to see other rain measurements)
** Current wind speed in m/s (hover to see current wind gust speed)